Find Shiyan 9

NORAD ID: 47851 Int'l Des: 2021-019 Owner: CAST Country: CN operational
HEOCIRCULARGSO

Current View

Loading 3D Globe...

About Shiyan 9

Shiyan 9 (NORAD 47851) is a satellite launched Mar 11, 2021 by CAST of CN. It operates in HEO, CIRCULAR, GSO orbit with a mass of 5000.00 kg.

Upcoming Passes

Passes for default location (London). Set your location on the main map for personalized predictions.

Altitude History

Loading altitude history...

Two-Line Element Set

1 47851U 21019A 26194.62267053 -.00000236 00000-0 00000-0 0 9993
2 47851 16.4707 302.0993 0013522 24.0942 336.0628 1.00264728 24398
Epoch: Jul 13, 2026 • Age: 16 hours

Current Status

Altitude 35834.3 km
Apogee / Perigee N/A
Velocity 3.07 km/s
Sub-Earth Point -14.93°S, 145.53°E
Launch Date Mar 11, 2021
Age 5.3 years
Type other

Technical Details

Classification Payload
Mass 5000.00 kg
Dry Mass 3000.00 kg
Total Mass 5000.00 kg
Length 5.00 m
Diameter 3.00 m
Span 9.00 m
Shape Box + 2 pan
Manufacturer CAST
Bus Type XYZ
Phase Status In Orbit
Owner/State CAST/CN

Most Searched